#timestamp,LO_Frequency,Hit,StdDev 
1512781215.3,286046989.3,P
1512781235.1,286046992.3,N
1512781255.9,286046991.9,N
1512781275.7,286046994.7,N
1512781295.5,286046994.4,N
1512781315.4,286046992.0,N
1512781335.2,286046994.8,N
1512781355.0,286046993.6,N
1512781355.9,286046993.6,N
1512781375.8,286046995.1,N
1512781395.6,286046993.5,N
1512781415.5,286046992.2,Y
1512781435.3,286047000.9,P
1512781455.1,286047000.1,N
1512781475.9,286047002.2,N
1512781495.7,286047001.1,N
1512781515.6,286046996.7,N
1512781535.4,286046999.5,N
1512781555.2,286047000.2,N
1512781575.1,286047000.0,N
1512781576.0,286047000.0,N
1512781595.8,286047000.1,N
1512781615.7,286046996.6,N
1512781635.5,286046997.8,N
1512781655.3,286046997.3,N
1512781675.2,286046996.5,N
1512781695.0,286047000.8,N
1512781695.9,286047000.8,N
1512781715.7,286047001.0,N
1512781735.6,286047001.5,N
1512781755.4,286047001.4,N
1512781775.3,286047002.8,N
1512781795.1,286047011.9,Y
1512781815.8,286047003.5,P
1512781835.7,286047002.5,N
1512781855.5,286047003.9,N
1512781875.4,286047000.6,N
1512781895.2,286046994.9,Y
1512781915.0,286046994.0,P
1512781915.9,286046994.0,N
1512781935.8,286046995.9,N
1512781955.6,286046996.6,N
1512781975.5,286047000.0,N
1512781995.3,286046999.1,N
1512782015.1,286046998.0,N
1512782035.9,286046998.1,N
1512782055.7,286046996.6,N
1512782075.5,286046998.1,N
1512782095.4,286046999.9,N
1512782115.2,286047000.3,N
1512782135.1,286047000.4,N
1512782136.0,286047000.4,N
1512782155.8,286046998.5,N
1512782175.6,286046998.5,N
1512782195.5,286046997.0,N
1512782215.3,286046997.1,N
1512782235.2,286046997.8,N
1512782255.9,286046997.0,N
1512782275.7,286046998.7,N
1512782295.6,286046998.5,N
1512782315.4,286047002.8,N
1512782335.2,286047001.5,N
1512782355.1,286047003.6,N
1512782356.0,286047003.6,N
1512782375.8,286047002.2,N
1512782395.7,286047000.8,N
1512782415.5,286047000.2,N
1512782435.3,286047002.7,N
1512782455.2,286046999.7,N
1512782475.0,286047001.0,N
1512782475.9,286047001.0,N
1512782495.8,286046999.7,N
1512782515.6,286047003.9,N
1512782535.4,286047000.6,N
1512782555.3,286047001.0,N
1512782575.1,286046996.6,N
1512782595.8,286046998.3,N
1512782615.7,286046999.7,N
1512782635.5,286047005.8,N
1512782655.4,286047004.7,N
1512782675.2,286047003.3,N
1512782695.0,286047007.5,Y
1512782695.9,286047007.5,P
1512782715.8,286047003.2,N
1512782735.6,286047004.7,N
1512782755.5,286047005.9,N
1512782775.3,286047005.1,N
1512782795.1,286047003.1,N
1512782815.9,286047004.8,N
1512782835.7,286047005.4,N
1512782855.6,286047004.0,N
1512782875.4,286047006.0,Y
1512782895.2,286047011.9,P
1512782915.1,286047000.4,N
1512782916.0,286047000.4,N
1512782935.8,286047001.5,N
1512782955.7,286047002.9,N
1512782975.5,286047002.9,N
1512782995.3,286047004.9,N
1512783015.2,286047007.5,N
1512783035.0,286047003.7,N
1512783035.9,286047003.7,N
1512783055.7,286047003.7,N
1512783075.6,286047003.4,N
1512783095.4,286047006.0,N
1512783115.3,286047002.4,N
1512783135.1,286046998.8,N
1512783155.8,286047000.2,N
1512783175.7,286047001.2,N
1512783195.5,286046997.7,N
1512783215.4,286046998.8,N
1512783235.2,286047000.8,N
1512783255.0,286047000.8,N
1512783255.9,286047000.8,N
1512783275.8,286046998.2,N
1512783295.6,286047000.8,N
1512783315.4,286046998.8,N
1512783335.3,286047000.1,N
1512783355.1,286047000.4,N
1512783375.9,286046999.9,N
1512783395.1,286046999.9,N
1512783415.9,286047001.2,N
1512783435.7,286046999.9,N
1512783455.6,286047000.2,N
1512783475.4,286047003.9,N
1512783495.2,286047005.5,N
1512783515.1,286047001.5,N
1512783516.0,286047001.5,N
1512783535.8,286047003.8,N
1512783555.7,286047004.9,N
1512783575.5,286047007.4,Y
1512783595.3,286047002.2,P
1512783615.2,286046999.7,N
1512783635.0,286047004.2,P
1512783635.9,286047004.2,N
1512783655.8,286047001.7,N
1512783675.6,286047004.3,N
1512783695.4,286047005.6,Y
1512783715.3,286047002.1,P
1512783735.1,286046999.7,N
1512783755.8,286046999.3,N
1512783775.7,286046996.6,N
1512783795.5,286047000.7,N
1512783815.4,286047002.7,N
1512783835.2,286047004.2,N
1512783855.0,286047000.3,N
1512783855.9,286047000.3,N
1512783875.8,286047002.2,N
1512783895.6,286046999.8,N
1512783915.5,286047002.4,N
1512783965.3,286047003.6,E
1512783975.2,286047001.3,N
1512783995.1,286046999.7,P
1512783996.0,286046999.7,N
1512784015.8,286047000.7,N
1512784035.7,286047000.0,N
1512784055.5,286046997.0,Y
1512784075.3,286046996.8,P
1512784095.2,286046995.7,N
1512784115.0,286046993.4,P
1512784115.9,286046993.4,N
1512784135.8,286046993.6,N
1512784155.6,286046992.2,Y
1512784175.4,286046997.0,P
1512784195.3,286047002.2,N
1512784215.1,286047001.5,N
1512784235.9,286047003.5,N
1512784255.7,286047003.3,N
1512784275.5,286047003.8,N
1512784295.4,286046999.7,N
1512784315.2,286046997.1,N
1512784335.1,286046998.3,N
1512784336.0,286046998.3,N
1512784355.8,286046998.6,N
1512784375.6,286046996.9,N
1512784395.5,286046996.7,N
1512784415.3,286046997.6,N
1512784435.1,286046999.4,N
1512784455.9,286046999.4,N
1512784475.7,286047000.1,N
1512784495.6,286047003.6,N
1512784515.4,286047003.5,N
1512784535.2,286047001.4,N
1512784555.1,286047001.6,N
1512784556.0,286047001.6,N
1512784575.8,286047003.2,N
1512784595.7,286047003.0,N
1512784615.5,286047003.5,N
1512784635.3,286047004.2,N
1512784655.2,286047004.4,N
1512784675.0,286047003.4,N
1512784675.9,286047003.4,N
1512784695.8,286047002.3,N
1512784715.6,286047001.9,N
1512784735.4,286047003.2,N
1512784755.3,286047005.3,N
1512784775.1,286047005.8,N
1512784795.8,286047005.7,N
